Theta_e
323 324 323 321 318 317 317 316 317 318 318 319 319 319 319 318 316 314 311 310 313 315 316 315 315 314 314 319 318 318 320 320 322 321 322 323 323 324 322 323 323 324 326 326 324 324 324
323 323 324 323 321 318 318 317 318 318 319 319 320 319 319 318 315 312 310 312 316 318 318 318 316 314 314 318 315 317 321 321 321 321 322 322 323 323 322 322 321 323 322 322 323 324 324
318 323 323 321 321 321 320 319 318 319 320 320 320 319 319 317 313 310 311 317 320 320 320 320 316 314 313 315 315 316 319 321 321 322 322 322 322 322 322 320 322 322 322 324 323 325 325
319 321 322 320 317 318 320 320 319 320 320 320 320 320 319 315 311 312 318 321 321 321 321 319 317 316 314 311 313 315 318 319 319 322 321 321 322 322 322 322 323 323 325 324 324 324 325
319 318 318 322 322 323 323 322 321 321 321 320 320 319 319 313 311 320 321 321 321 321 320 319 319 318 313 312 316 319 320 319 319 321 321 320 323 324 324 321 324 324 325 325 325 326 325
317 319 322 322 321 323 323 323 322 321 321 321 320 319 318 312 317 322 321 320 321 319 321 319 318 320 316 314 320 320 319 318 320 321 322 323 324 324 323 323 321 325 324 325 325 327 329
317 317 321 322 322 321 323 322 322 322 321 320 319 319 316 312 322 322 320 325 323 324 324 324 322 318 317 320 319 320 318 320 322 321 320 323 322 321 324 326 326 326 326 325 324 324 331
314 317 317 321 322 320 322 322 322 322 321 320 319 317 317 313 322 322 324 324 326 326 328 324 324 324 322 321 320 320 320 321 322 321 322 323 320 323 325 324 326 326 326 326 324 327 330
311 315 317 318 321 320 320 321 320 320 321 321 319 317 317 319 322 324 326 326 324 324 329 324 324 324 323 322 322 319 321 321 321 322 322 320 323 323 324 324 326 327 327 326 325 327 329
313 312 317 316 318 321 318 320 317 319 320 321 318 317 315 319 323 325 326 325 323 324 326 321 323 324 321 322 324 321 320 321 321 321 321 320 321 324 324 325 325 327 325 325 324 326 327
308 314 315 317 315 318 320 321 320 318 319 321 317 316 315 322 325 326 326 324 322 326 323 321 323 321 320 321 320 318 318 320 321 321 321 319 322 322 324 324 324 326 323 325 324 325 325
305 306 313 316 315 315 318 319 322 321 320 321 315 315 314 322 322 325 323 321 325 327 325 324 323 324 320 319 323 320 318 318 319 321 321 319 323 324 323 323 324 323 324 324 325 325 328
305 305 307 315 316 315 317 319 321 319 318 320 315 315 314 321 323 322 323 323 326 331 321 322 326 325 320 322 323 323 320 319 320 321 321 319 319 322 323 325 323 323 325 328 330 329 327
307 307 307 310 315 315 317 319 320 320 317 321 316 315 316 316 321 322 320 325 329 325 323 326 326 326 324 325 324 323 323 321 319 318 319 320 323 321 322 323 324 325 326 328 330 329 330
304 305 308 309 314 314 315 319 320 320 319 319 316 314 318 316 320 321 326 326 325 326 322 327 327 328 327 326 325 324 324 322 321 322 324 322 327 324 322 323 324 326 327 326 330 330 330
302 304 306 309 315 313 315 317 319 320 320 318 315 316 317 316 320 318 325 326 326 322 325 325 328 328 329 327 326 325 324 326 326 323 323 327 330 326 324 324 324 326 326 328 328 331 329
303 304 305 308 311 313 312 315 318 319 320 318 316 318 317 315 318 320 326 326 325 323 322 326 328 328 328 328 327 325 326 327 326 327 325 326 329 329 327 327 326 327 327 328 328 330 330
302 305 304 308 312 314 312 314 317 319 318 315 316 318 318 317 321 322 325 323 321 323 321 323 324 326 327 326 328 330 329 329 323 327 326 327 327 331 329 328 327 328 328 328 332 329 330
302 304 307 307 308 313 314 313 317 318 316 315 318 318 317 319 326 324 323 323 323 322 322 323 323 324 325 327 328 329 329 325 322 326 329 327 329 331 330 330 328 330 329 328 329 329 331
301 302 304 305 306 309 313 313 316 316 315 316 317 318 319 317 321 323 324 324 323 320 321 321 323 323 324 324 325 327 329 326 324 323 317 323 328 328 331 328 329 331 330 328 329 335 331
300 302 302 304 306 309 313 313 315 317 315 317 317 319 319 321 323 323 323 324 325 323 321 321 323 322 322 325 325 326 326 327 325 321 324 324 330 328 326 325 326 327 327 328 328 328 331
300 301 303 303 304 307 311 313 314 316 317 315 314 316 315 322 323 323 322 324 325 322 321 322 323 322 320 321 323 326 325 326 327 326 326 324 329 325 324 323 322 324 324 325 326 326 326
299 301 303 302 303 306 308 313 313 315 315 311 307 309 319 322 323 323 324 325 325 323 319 321 322 322 323 321 322 323 324 324 325 326 327 327 328 328 330 324 324 326 326 325 324 323 324
299 300 301 301 303 304 306 311 312 315 313 314 312 311 317 318 325 324 322 322 324 323 322 319 321 323 320 320 321 321 322 322 323 323 324 326 326 327 329 325 331 323 319 319 320 320 319
299 299 300 302 301 303 304 304 311 313 314 312 311 315 317 318 322 322 322 320 320 318 317 320 320 320 319 322 325 324 324 323 323 322 324 323 325 327 330 327 324 322 320 320 320 319 317
299 299 299 301 301 303 303 304 311 312 313 312 310 312 317 320 318 319 319 317 319 320 316 317 316 317 320 323 324 326 326 321 323 323 319 320 323 328 327 328 325 320 317 317 317 321 317
299 299 300 301 301 301 303 304 303 311 312 312 310 312 309 312 312 319 320 319 316 318 318 318 318 318 319 323 325 325 324 320 325 324 325 325 325 328 326 330 324 321 316 316 321 322 317
298 299 300 299 301 300 301 302 303 309 311 311 310 310 309 308 308 311 313 316 316 317 319 318 319 318 321 325 324 324 324 322 321 321 323 325 327 328 327 330 328 319 317 319 320 319 317
298 300 300 300 300 300 300 303 303 309 310 310 308 309 309 306 304 304 305 306 308 313 317 318 317 318 320 322 323 322 323 321 320 323 319 323 321 325 323 324 321 319 319 318 318 317 318
Wind_Speed
34 30 28 26 24 23 21 18 17 14 12 10 8 8 9 10 13 15 17 18 19 20 21 21 21 19 8 4 1 1 2 5 5 4 8 4 6 0 1 1 1 3 1 2 3 5 4
37 34 31 28 26 25 22 21 18 16 14 11 9 8 10 12 12 14 16 17 18 19 20 19 17 15 5 7 0 1 1 2 4 4 6 6 4 3 1 1 4 2 4 2 2 3 1
40 37 35 31 28 27 26 23 21 19 15 12 10 9 9 11 13 14 15 16 17 18 18 16 12 9 3 8 1 3 2 0 2 3 5 6 3 2 1 1 3 2 5 9 6 4 5
40 38 37 37 34 34 29 26 24 21 17 15 11 9 9 11 13 14 14 15 17 18 14 11 8 4 6 2 4 6 5 4 3 2 3 3 0 3 2 1 3 4 6 10 8 4 2
33 38 43 40 38 36 33 29 28 23 20 16 12 10 8 10 11 12 14 16 16 10 7 5 2 2 5 4 1 2 2 3 6 4 2 2 1 1 4 6 6 5 4 3 6 9 3
31 38 41 42 41 40 36 31 29 25 23 18 13 10 7 11 9 10 12 13 6 5 5 3 0 4 4 1 3 4 2 4 3 8 5 4 3 5 4 6 4 5 7 6 2 6 7
34 38 37 41 45 41 40 34 32 30 25 20 13 9 6 9 8 9 13 4 5 4 3 6 5 5 5 5 2 3 3 6 5 5 6 2 6 6 5 1 3 3 4 3 6 3 2
34 36 39 40 44 44 40 36 34 31 26 21 16 9 8 7 6 6 7 3 4 4 8 8 11 12 13 7 4 8 6 9 7 7 6 6 7 6 5 3 4 5 6 5 5 4 4
34 37 37 38 41 46 42 41 37 33 27 23 18 11 8 5 4 4 3 4 2 3 6 7 6 6 4 12 9 10 10 7 8 9 9 7 3 9 7 7 7 7 8 5 1 5 1
28 35 39 36 35 35 43 42 41 37 29 25 18 12 10 4 3 4 4 3 2 4 6 6 6 4 5 5 7 15 13 9 6 11 9 6 7 9 9 9 9 8 6 4 7 7 3
26 22 37 37 37 34 42 45 42 42 32 25 20 15 11 9 4 4 5 4 1 2 7 5 6 6 5 6 2 5 10 12 13 9 8 5 9 11 11 10 8 1 3 6 5 7 6
34 30 24 41 39 39 39 36 35 35 34 27 22 18 15 10 6 5 6 5 2 6 12 5 6 7 6 9 4 5 6 6 9 10 9 7 2 4 4 6 4 7 7 5 4 5 9
31 32 30 36 41 40 38 35 36 36 34 30 25 22 18 12 6 12 9 3 2 9 1 10 7 8 9 9 7 8 12 13 11 12 15 14 14 7 6 8 6 10 9 5 7 5 2
25 30 31 29 40 39 39 38 38 37 35 35 28 20 20 17 9 17 13 3 9 9 17 1 5 7 10 8 6 8 11 10 8 11 6 12 8 14 11 16 11 16 12 5 5 3 3
26 27 30 31 38 35 36 36 36 36 36 39 32 23 18 24 18 19 6 6 7 11 17 6 6 10 7 7 3 9 11 9 8 11 4 9 5 5 7 4 8 9 11 1 2 1 4
27 30 26 28 32 35 35 34 34 36 35 41 26 19 24 21 23 15 6 7 6 7 5 6 10 5 9 9 8 10 11 3 5 5 4 4 6 4 8 7 3 10 11 6 5 4 4
24 26 31 31 29 35 35 35 34 35 39 40 24 8 13 30 24 4 7 7 11 6 4 4 5 5 4 4 3 7 7 3 1 3 5 3 2 7 6 6 12 6 7 0 1 1 2
21 22 33 28 27 36 35 36 35 38 45 46 11 5 20 36 10 3 7 10 6 12 4 2 3 5 4 2 3 3 4 2 3 2 5 2 1 7 5 3 2 2 3 7 3 5 1
19 29 24 27 29 32 36 37 37 39 50 35 9 4 23 31 10 9 5 9 12 11 9 4 3 3 1 3 2 2 3 3 3 0 2 3 4 6 6 4 3 6 4 2 2 1 8
19 23 21 20 20 28 39 39 39 46 53 33 4 6 4 3 3 16 14 12 10 6 8 5 9 5 5 3 1 2 4 2 2 3 3 2 2 4 4 4 2 5 7 7 7 4 8
18 23 25 20 20 28 41 42 42 46 59 19 4 5 7 10 10 18 18 18 18 9 6 8 5 8 7 5 6 6 4 4 3 3 1 1 3 2 5 4 2 2 4 7 10 10 7
17 26 20 17 20 20 29 41 43 46 55 33 6 3 1 9 17 19 16 18 26 14 12 11 7 12 10 8 6 6 8 7 4 3 1 1 3 2 2 2 1 6 6 9 10 11 13
17 20 18 17 20 26 17 42 42 49 51 6 4 3 4 10 15 16 17 18 22 19 3 8 8 3 10 11 7 2 4 2 2 5 4 3 5 4 4 0 5 10 15 16 13 10 10
17 19 18 17 18 27 26 27 41 41 53 18 6 5 2 3 14 17 19 16 22 22 11 8 10 16 4 6 8 4 1 3 2 2 2 6 5 2 2 2 5 2 3 1 4 7 7
16 17 19 16 13 19 26 16 43 44 47 26 19 13 3 2 14 13 21 14 12 9 4 10 9 9 9 11 5 5 3 4 7 1 6 3 4 3 3 7 7 11 7 4 4 4 3
19 16 18 16 13 16 25 31 41 42 45 25 24 26 6 7 8 17 17 17 9 9 4 3 3 4 7 3 3 6 6 7 7 6 2 3 3 4 4 4 5 3 9 5 2 9 7
18 19 19 16 13 11 24 25 16 42 46 35 13 15 4 4 3 19 15 15 9 6 5 6 7 4 5 4 4 4 6 5 7 9 8 7 4 8 7 5 5 7 9 5 3 1 6
15 19 21 16 14 10 15 21 21 36 42 32 16 15 4 3 3 1 3 16 11 9 9 9 6 3 5 8 7 5 6 7 7 7 7 10 9 6 7 5 8 11 11 7 0 3 4
15 18 20 20 16 12 10 16 16 42 38 27 11 14 10 7 3 7 6 4 2 9 7 13 6 13 7 8 5 5 3 5 11 9 7 8 8 5 9 5 4 14 7 10 3 5 6
Wind_Direction
239 236 235 235 238 238 239 237 243 246 250 261 280 301 315 322 329 333 333 336 339 339 340 342 342 348 359 299 55 34 31 30 29 25 32 35 41 112 261 269 239 248 155 274 341 306 302
238 236 235 232 233 237 238 239 241 244 248 258 275 291 308 318 323 326 328 332 333 335 335 337 340 344 323 284 338 347 68 29 48 65 52 40 48 29 69 340 307 8 286 284 343 10 129
236 237 235 234 233 233 237 237 241 243 242 249 262 281 299 313 320 324 325 328 327 328 329 332 337 347 273 277 238 302 296 31 28 54 66 75 67 270 273 219 350 281 228 151 48 104 111
234 239 238 234 235 236 237 238 238 242 242 245 251 273 293 308 319 323 326 326 323 317 319 323 331 336 274 247 299 295 264 243 202 133 89 101 13 99 301 142 204 220 230 190 58 14 109
244 236 242 236 232 233 232 231 235 236 238 244 249 265 291 303 317 327 332 326 319 318 316 324 344 318 272 322 220 340 192 141 141 142 88 113 244 359 187 215 190 195 161 194 133 30 172
247 239 239 236 233 232 230 230 232 233 235 233 244 251 282 302 315 338 344 329 331 338 318 330 174 260 227 42 334 321 175 154 150 157 165 197 198 226 191 217 251 161 160 164 117 47 84
244 241 236 238 236 230 231 227 230 230 229 230 229 245 259 296 314 352 4 336 271 207 309 285 308 288 282 322 281 190 173 168 161 198 220 187 232 226 130 70 92 146 179 156 113 73 56
246 241 235 233 232 228 227 226 225 226 224 224 216 236 250 278 303 12 19 41 47 350 301 264 257 259 259 273 289 209 183 198 202 213 167 203 230 146 138 148 197 197 195 174 110 97 263
247 241 233 233 233 221 223 226 224 226 218 217 214 229 236 256 286 79 66 83 9 311 267 267 230 252 222 198 226 219 198 187 201 200 205 252 76 164 182 176 198 206 227 166 279 148 154
246 242 236 229 232 226 221 225 222 224 215 215 212 219 223 212 238 153 125 122 327 275 271 251 211 204 169 201 232 217 210 196 197 215 199 234 154 190 210 215 220 207 202 204 183 220 246
251 247 238 229 227 223 222 223 222 222 214 209 205 208 204 183 149 195 136 150 107 266 270 114 158 137 157 206 49 159 201 207 211 185 200 137 184 200 214 217 201 72 166 205 206 237 251
255 256 245 227 222 223 225 221 220 217 206 201 202 204 195 196 186 156 139 130 139 233 242 176 150 177 180 200 195 126 169 227 237 203 228 261 144 211 190 164 187 144 160 167 212 250 246
254 255 254 229 219 218 220 220 217 210 199 199 201 203 193 192 196 187 148 64 215 238 22 203 185 187 198 178 183 190 175 184 186 203 216 217 219 191 215 203 175 199 194 215 214 206 273
242 246 245 244 211 213 214 214 214 208 199 196 192 193 206 212 205 178 160 93 209 245 225 94 186 168 194 177 195 183 183 183 223 223 211 205 187 201 191 224 208 206 207 232 254 217 126
254 252 246 241 213 212 212 213 212 208 200 198 198 195 211 212 195 181 171 212 193 236 209 206 171 187 169 169 225 188 198 198 189 209 234 197 144 144 189 176 214 172 212 342 186 88 273
250 244 249 242 222 212 213 213 213 209 206 196 172 190 213 203 191 187 198 212 212 232 218 210 196 249 173 168 191 202 187 164 176 223 257 170 145 136 132 160 124 240 150 181 217 218 232
251 246 247 237 222 212 211 210 210 210 202 185 169 182 212 199 192 178 205 196 207 214 215 211 160 139 124 135 181 181 171 123 195 160 211 198 235 143 173 220 171 158 177 122 97 310 259
252 247 245 229 224 212 211 207 206 210 200 174 160 183 174 175 199 203 183 182 166 182 203 179 126 105 103 115 131 156 164 50 3 287 193 153 191 173 150 78 323 321 176 205 206 173 215
259 239 244 231 227 213 212 206 206 207 190 170 165 156 169 169 200 186 184 161 188 168 184 184 115 58 148 119 131 125 119 65 39 135 179 164 194 165 159 175 187 220 172 177 118 170 217
257 230 262 238 237 217 218 208 204 200 182 175 148 156 168 201 210 167 165 178 160 185 163 142 120 136 151 175 157 128 149 101 41 95 48 265 147 258 222 79 111 184 190 201 221 214 249
265 236 253 237 230 219 213 208 204 203 187 176 183 174 187 190 185 174 171 168 179 167 192 177 149 169 168 180 205 214 184 158 147 144 130 335 175 95 69 67 19 307 226 207 226 251 239
261 229 250 237 234 227 220 209 203 206 188 198 146 168 193 175 173 163 178 185 183 171 166 180 189 170 176 197 201 191 223 217 220 160 108 45 150 133 7 116 290 265 236 240 243 253 256
255 233 247 229 222 225 238 209 205 196 183 146 148 133 219 167 164 169 188 178 189 170 164 185 117 182 190 215 215 351 80 78 147 193 146 151 151 164 242 259 303 268 237 240 240 242 265
254 241 252 229 219 225 223 209 209 209 195 181 179 90 120 163 174 185 163 177 186 184 159 144 149 217 169 130 132 126 112 131 165 141 165 161 172 148 239 183 248 330 125 76 262 266 257
242 235 249 242 252 236 227 270 215 209 198 183 192 191 139 181 176 171 169 167 162 112 96 168 169 218 150 153 154 161 171 187 198 251 204 213 157 137 201 222 306 245 212 211 218 277 256
234 246 248 230 227 223 232 233 210 209 203 181 181 193 188 161 195 160 159 154 136 156 117 112 47 123 154 144 164 189 188 184 179 160 149 156 240 171 171 227 237 118 163 162 223 278 146
239 230 231 223 214 229 225 236 256 207 204 196 182 163 134 104 125 168 171 169 128 121 124 148 132 135 223 196 165 183 210 193 172 187 172 176 179 194 203 228 256 232 169 176 230 31 165
245 218 218 223 208 220 225 228 244 213 201 183 181 172 133 107 110 46 108 164 140 158 156 152 129 196 174 202 200 181 211 194 206 197 182 178 180 187 207 210 248 172 155 221 258 168 208
240 212 212 210 216 229 241 223 233 190 181 171 136 144 153 76 112 72 76 84 47 152 150 167 180 174 175 182 203 186 167 188 202 219 206 224 215 195 198 208 113 181 209 212 251 248 229